This is the latest recevied weather packets stored in our database for station/object W1TG-2. If no packets are shown the sender has not sent any weather packets the latest 10 day(s).
| Time | Temp. | Humidity | Pressure | Rain* | Wind** | Luminosity | Snow |
|---|---|---|---|---|---|---|---|
| 1787868004 | 27.22° C | 63% | 1014.7 hPa | 0 mm | - | - | - |
| 1787867643 | 27.22° C | 64% | 1014.7 hPa | 0 mm | - | - | - |
| 1787867283 | 27.22° C | 63% | 1014.8 hPa | 0 mm | - | - | - |
| 1787866924 | 27.22° C | 64% | 1014.7 hPa | 0 mm | - | - | - |
| 1787866564 | 27.22° C | 64% | 1014.7 hPa | 0 mm | - | - | - |
| 1787866203 | 27.22° C | 64% | 1014.8 hPa | 0 mm | - | - | - |
| 1787865844 | 27.22° C | 64% | 1014.8 hPa | 0 mm | - | - | - |
| 1787865484 | 27.22° C | 64% | 1014.8 hPa | 0 mm | - | - | - |
| 1787865123 | 27.22° C | 65% | 1014.7 hPa | 0 mm | - | - | - |
| 1787864764 | 27.22° C | 67% | 1014.8 hPa | 0 mm | - | - | - |
| 1787864403 | 27.22° C | 68% | 1014.9 hPa | 0 mm | - | - | - |
| 1787864043 | 27.22° C | 70% | 1015 hPa | 0 mm | - | - | - |
| 1787863684 | 26.67° C | 72% | 1015 hPa | 0 mm | - | - | - |
| 1787863324 | 26.11° C | 73% | 1015.2 hPa | 0 mm | - | - | - |
| 1787862963 | 26.11° C | 73% | 1015.3 hPa | 0 mm | - | - | - |
| 1787862604 | 26.11° C | 72% | 1015.5 hPa | 0 mm | - | - | - |
| 1787862244 | 26.67° C | 72% | 1015.4 hPa | 0 mm | - | - | - |
| 1787861883 | 26.67° C | 72% | 1015.2 hPa | 0 mm | - | - | - |
| 1787861524 | 26.67° C | 71% | 1015.2 hPa | 0 mm | - | - | - |
| 1787861164 | 26.67° C | 71% | 1015.3 hPa | 0 mm | - | - | - |
| 1787860803 | 26.67° C | 73% | 1015.4 hPa | 0 mm | - | - | - |
| 1787860443 | 26.11° C | 74% | 1015.5 hPa | 0 mm | - | - | - |
| 1787860084 | 25.56° C | 75% | 1015.5 hPa | 0 mm | - | - | - |
| 1787859724 | 25° C | 77% | 1015.4 hPa | 0 mm | - | - | - |
| 1787859363 | 24.44° C | 79% | 1015.3 hPa | 0 mm | - | - | - |
* Rain latest hour (hover to see other rain measurements)
** Current wind speed in m/s (hover to see current wind gust speed)